Showing default

WNISAT 1R, 42835

Orbit data source: Space-Track

WNISAT 1R, 42835 is a payload satellite owned by WNI (JP) in SSO that was launched on Fri, 14 Jul 2017 UTC via a SOYUZ-2-1A launch vehicle from the Tyuratam Missile And Space Complex (TTMTR). Payloads include a variety of satellites, spacecraft, and rockets equipped with specific instruments for various scientific and technological missions. These include communications satellites like Starlink; space stations such as the ISS; scientific satellites like the Hubble; Earth observation satellites from companies like Planet Labs, Umbra, and HawkEye 360; GPS; miniature CubeSats for education and research; and military/defense satellites.

Loading next visibility...
WNISAT 1R details
Identifier
42835, 2017-042L
Orbit
SSO
Last TLE update9 hours ago
Origin
Flag of JPWNI (JP / JPN)
ManufacturerAXELSPACE
MissionOperational Commercial Weather
Bus & MotorHODOYOSHI, Unknown motor
Mass40 kg wet, 40 kg dry
Launch date (UTC)
2017-07-14 (7 years ago)
Launch vehicle
SOYUZ-2-1A
Launch site
Tyuratam Missile And Space Complex (TTMTR)
Object type
Payload
Rocket body
Debris
Shape & HBRBox + 2 Pan, 1.5 m
Radar Cross Section0.514 m², Medium (>0.1 m² and < 1m²)

Expand to show TLE details & history

TLE from 9 hours ago
0 WNISAT 1R
1 42835U 17042L   24341.08358217  .00005066  00000-0  44119-3 0  9993
2 42835  97.3872 152.2422 0011086 209.7899 150.2693 14.97278256402865
Epoch: 2024-12-06T02:00Z
Definitive object data (Epoch: 2024-12-06T02:00:21.499Z)
Latitude-0.00011°
Longitude46.79752°
Altitude585.068 km
Speed7.564 km/s
True Right ascension10h 08m 58s
True Declination0° 00' 00"
Sunlit
Object was in daylight at TLE epoch
Visualization TLE readout
Latitude-37.25748°
Longitude-138.47692°
Altitude581.901 km
Speed7.572 km/s
Apparent Right ascension21h 26m 22s
Apparent Declination-38° 29' 19"
Sunlit
Object is in daylight
Visualization observer readout
Local Sidereal Time09:02:02
Azimuth284.901° WNW
Elevation-85.074°
Doppler factor1
Orbital elements
Apogee altitude580.011 km
Perigee altitude564.6 km
Semi-major axis6,950.443 km
Eccentricity0.0011086
Inclination97.3872°
RAAN152.2422°
Arg. of periapsis209.7899°
True anomaly150.33222°
Mean anomaly150.2693°
Eccentric anomaly150.30077°
Mean motion3.74563 °/min
BSTAR0.00044119
Orbital period96.11 mins
Loading maneuver chart data...

WNISAT 1R Visibility forecast

Observer location: undefined°, undefined

Span
Click to sort rows by Start time (UTC) header in descending order
Start Az.
Max El. time (UTC)
Max El. Az.
Max El.
End time (UTC)
End Az.
7 mins2024-12-06 11:44:36.713Z171.687° S2024-12-06 11:48:36.713Z284.828° WNW44.216°2024-12-06 11:51:36.713Z344.015° N
5 mins2024-12-07 01:02:36.713Z338.755° N2024-12-07 01:04:36.713Z286.188° WNW30.745°2024-12-07 01:07:36.713Z225.104° WSW
|